Regional Weather Roundup
Issued by NWS

Home | Current Version | Previous Version | Text Only | Print | Product List | Glossary On
Versions: 1 2 3 4 5 6 7 8 9 10 11 12 13 14 15 16 17 18 19 20 21 22 23 24 25 26 27 28 29 30 31 32 33 34 35 36 37 38 39 40 41 42 43 44 45 46 47 48 49 50
000
ASUS45 KTFX 020110
RWRMT
MONTANA REGIONAL WEATHER ROUNDUP
NATIONAL WEATHER SERVICE GREAT FALLS MT
700 PM MDT MON JUN 01 2015

NOTE: "FAIR" INDICATES FEW OR NO CLOUDS BELOW 12000 FEET WITH NO
SIGNIFICANT WEATHER AND/OR OBSTRUCTIONS TO VISIBILITY.

MTZ001>007-043-020200-
WEST OF THE DIVIDE

CITY           SKY/WX    TMP DP  RH WIND       PRES   REMARKS
KALISPELL      LGT RAIN  62  53  72 E22       29.81R
MISSOULA       CLOUDY    64  53  67 CALM      29.84F
BUTTE          PTSUNNY   56  46  69 SW5       29.94R
MULLAN PASS    TSTM      48  47  96 S10       29.96R
DEER LODGE       N/A     63  48  59 E3        29.94R
EUREKA           N/A     75  50  41 E5        29.76R
HAMILTON         N/A     66  50  55 NE6       29.84F
LIBBY            N/A     57  57 100 CALM      29.89R
RONAN            N/A     68  54  60 S2        29.89R
$$

MTZ008-052>055-020200-
SOUTHWEST MONTANA

CITY           SKY/WX    TMP DP  RH WIND       PRES   REMARKS
BOZEMAN        CLOUDY    60  53  77 E6        29.94F
DILLON         CLOUDY    59  49  69 NW5       29.93F
W YELLOWSTONE  RAIN      48  45  87 SW14G25   30.14R
THREE FORKS      N/A     62  21  20 S3        29.91F
TWIN BRIDGES     N/A     58  47  66 SE18      29.93F
$$

MTZ009-010-012-014-046-048-049-054-020200-
EAST SLOPES AND CENTRAL MONTANA

CITY           SKY/WX    TMP DP  RH WIND       PRES   REMARKS
CUT BANK       CLOUDY    72  43  35 E8        29.86F
GREAT FALLS    TSTM      57  54  89 SW18G25   29.91R
HELENA         CLOUDY    60  54  80 W7        29.88F
CONRAD           N/A     70  55  58 SE7       29.92R
$$

MTZ011-013-016-021-045-047-050-051-020200-
NORTH CENTRAL MONTANA

CITY           SKY/WX    TMP DP  RH WIND       PRES   REMARKS
HAVRE          PTSUNNY   77  46  33 E17G23    29.81F
LEWISTOWN      CLOUDY    67  54  63 N8        29.84F
N BAR RANCH    FAIR      66  52  59 NE7       29.87S
CHINOOK          N/A     77  45  31 NE7       29.82R
FORT BENTON      N/A     73  46  38 CALM      29.83S
$$

MTZ017>020-022>027-061-062-020200-
NORTHEAST MONTANA

CITY           SKY/WX    TMP DP  RH WIND       PRES   REMARKS
GLASGOW        MOSUNNY   78  50  37 NE16      29.77F
JORDAN           N/A     80  49  33 N14       29.77F
SIDNEY         SUNNY     86  48  26 NW6       29.74S
WOLF POINT     MOSUNNY   81  54  39 N16       29.76S
MALTA            N/A     78  49  36 N9        29.78F
PLENTYWOOD       N/A     79  52  38 N17       29.79R
POPLAR           N/A     82  54  36 N10       29.76F
$$

MTZ028>42-056>058-020200-
SOUTHCENTRAL AND SOUTHEAST MONTANA

CITY           SKY/WX    TMP DP  RH WIND       PRES   REMARKS
BAKER          CLOUDY    84  53  34 E7        29.79F
BILLINGS       TSTM      65  55  70 E22G29    29.74F
LIVINGSTON     CLOUDY    59  52  77 W6        29.94R
MILES CITY     MOSUNNY   84  52  33 NE6       29.74F
BIG TIMBER       N/A     61  48  63 W14G28    29.90R
FORSYTH          N/A     81  54  39 E5        29.73F
LAUREL           N/A     66  49  54 NE9       29.76F
ROUNDUP          N/A     75  51  42 CALM      29.73S
$$

REGIONAL REPORTS...DAKOTAS

CITY           SKY/WX    TMP DP  RH WIND       PRES   REMARKS
WILLISTON      MOSUNNY   85  54  34 N14       29.74S
MINOT          LGT RAIN  77  60  55 S10       29.72F
DICKINSON      SUNNY     79  61  53 S12       29.77F
BEACH          FAIR      84  54  34 CALM      29.79S
CROSBY         FAIR      79  52  38 N15       29.78R
WATFORD CITY   FAIR      77  55  47 NE7       29.73S
BISMARCK       MOSUNNY   80  61  52 S13       29.79F
GRAND FORKS    MOSUNNY   72  48  42 S22G33    29.89F
FARGO          SUNNY     73  47  39 SE22G31   29.92F
BUFFALO SD       N/A     79  62  56 SE13      29.73F
RAPID CITY     PTSUNNY   77  59  53 SE10      29.81R
$$

REGIONAL REPORTS...WYOMING/IDAHO/WASHINGTON

CITY           SKY/WX    TMP DP  RH WIND       PRES   REMARKS
GILLETTE         N/A     78  61  55 S7        29.81F
SHERIDAN       CLOUDY    71  62  73 W12       29.77F
BUFFALO WY     TSTM      64  49  57 SW37G54   29.86F
CODY           CLOUDY    68  48  49 S7        29.84F
YELLOWSTONE LA   N/A     51  40  65 W17G43    30.15R
IDAHO FALLS    LGT RAIN  56  49  77 SE10      30.00F
SALMON           N/A     64  46  52 SW12      29.87F
BOISE          PTSUNNY   81  40  23 SE12      29.75F
SPOKANE        CLOUDY    77  50  38 S9        29.76R
$$

REGIONAL REPORTS...ALBERTA

CITY           SKY/WX    TMP DP  RH WIND       PRES   REMARKS
EDMONTON       MOSUNNY   61  41  48 NE15      29.97R
CALGARY        PTSUNNY   70  39  32 SW3       29.90S
LETHBRIDGE     PTSUNNY   73  41  31 E12G23    29.85F
MEDICINE HAT   PTSUNNY   77  36  22 NE12      29.86R
$$

REGIONAL REPORTS...SASKATCHEWAN

CITY           SKY/WX    TMP DP  RH WIND       PRES   REMARKS
SWIFT CURRENT  SUNNY     72  36  26 N13G18    29.89S
REGINA         MOSUNNY   73  43  33 NW14      29.85S
SASKATOON      MOSUNNY   70  45  40 N16       29.91R
$$


USA.gov is the U.S. government's official web portal to all federal, state and local government web resources and services.